Presque Isle, ME

9:04 AM EDT on May 30, 2017 (GMT -0400)
Northern Maine Regional At Presque Isle

Weather History for KPQI - January, 2013

Change the Weather History Date:

Friday, January 4, 2013

  Actual Average Record
Temperature  
Mean Temperature 8 °F -  
Max Temperature 26 °F 20 °F 52 °F (1950)
Min Temperature -9 °F 3 °F -30 °F (1934)
Degree Days  
Heating Degree Days 56    
Moisture  
Dew Point 4 °F    
Average Humidity 71    
Maximum Humidity 100    
Minimum Humidity 29    
Precipitation  
Precipitation 0.00 in - - ()
Sea Level Pressure  
Sea Level Pressure 29.58 in    
Wind  
Wind Speed 3 mph (South)    
Max Wind Speed 9 mph    
Max Gust Speed -    
Visibility 8 miles    
Events      
Averages and records for this station are not official NWS values.
T = Trace of Precipitation, MM = Missing Value Source: NWS Daily Summary

Daily Weather History Graph

Daily Weather History Graph

Search for Another Location

Airport or City:

Trip Planner

Search our weather history database for the weather conditions in past years. The results will help you decide how hot, cold, wet, or windy it might be!

Date:

Astronomy

Jan. 04, 2013 Rise Set
Actual Time 7:16 AM EST 3:58 PM EST
Civil Twilight 6:41 AM EST 4:33 PM EST
Nautical Twilight 6:03 AM EST 5:11 PM EST
Astronomical Twilight 5:26 AM EST 5:47 PM EST
Moon No Moon Rise 10:29 AM EST (1/4)
Length of Visible Light 9h 51m
Length of Day
8h 41m
Waning Gibbous, 55% of the Moon is Illuminated
Jan 4
Waning Gibbous
Jan 4
Last Quarter
Jan 11
New
Jan 18
First Quarter
Jan 26
Full

Hourly Weather History & Observations

Time (EST) Temp. Windchill Dew Point Humidity Pressure Visibility Wind Dir Wind Speed Gust Speed Precip Events Conditions
12:15 AM -5.8 °F - -16.6 °F 60% 29.76 in 10.0 mi Calm Calm - N/A   Clear
12:55 AM -5.8 °F - -16.6 °F 60% 29.75 in 10.0 mi Calm Calm - N/A   Clear
1:15 AM -7.6 °F -16.5 °F -27.4 °F 38% 29.75 in 10.0 mi South 3.5 mph - N/A   Clear
1:35 AM -9.4 °F - - N/A% 29.74 in 10.0 mi Calm Calm - N/A   Clear
1:55 AM -7.6 °F -16.5 °F -7.6 °F 100% 29.75 in 10.0 mi SW 3.5 mph - N/A   Scattered Clouds
2:15 AM -9.4 °F - - N/A% 29.73 in 10.0 mi Calm Calm - N/A   Overcast
2:35 AM -9.4 °F - - N/A% 29.73 in 10.0 mi Calm Calm - N/A   Overcast
2:55 AM -7.6 °F - -29.2 °F 34% 29.73 in 10.0 mi Calm Calm - N/A   Mostly Cloudy
3:15 AM -7.6 °F - -16.6 °F 65% 29.73 in 10.0 mi Calm Calm - N/A   Mostly Cloudy
3:35 AM -7.6 °F - -14.8 °F 71% 29.71 in 10.0 mi Calm Calm - N/A   Overcast
3:55 AM -9.4 °F - -23.8 °F 49% 29.71 in 10.0 mi Calm Calm - N/A   Overcast
4:15 AM -9.4 °F - -18.4 °F 65% 29.70 in 7.0 mi Calm Calm - N/A   Overcast
4:55 AM -7.6 °F - -20.2 °F 54% 29.69 in 4.0 mi Calm Calm - N/A   Overcast
5:15 AM -5.8 °F - -14.8 °F 65% 29.69 in 4.0 mi Calm Calm - N/A   Overcast
5:55 AM -2.2 °F - -27.4 °F 29% 29.67 in 6.0 mi Calm Calm - N/A   Overcast
6:15 AM -0.4 °F -8.3 °F -14.8 °F 51% 29.67 in 5.0 mi SSE 3.5 mph - N/A   Overcast
6:35 AM -0.4 °F -10.4 °F - N/A% 29.67 in 10.0 mi SSE 4.6 mph - N/A   Overcast
6:55 AM 1.4 °F -6.2 °F -9.4 °F 61% 29.66 in 10.0 mi SE 3.5 mph - N/A   Overcast
7:15 AM 1.4 °F -8.3 °F -9.4 °F 61% 29.65 in 5.0 mi SE 4.6 mph - N/A   Overcast
7:35 AM 1.4 °F -9.9 °F -11.2 °F 56% 29.65 in 3.0 mi SSE 5.8 mph - N/A   Overcast
7:55 AM 1.4 °F - -20.2 °F 36% 29.65 in 9.0 mi Calm Calm - N/A   Overcast
8:35 AM 3.2 °F -4.2 °F -7.6 °F 61% 29.64 in 10.0 mi SSE 3.5 mph - N/A   Overcast
8:55 AM 3.2 °F -9.1 °F -7.6 °F 61% 29.64 in 10.0 mi South 6.9 mph - N/A   Overcast
9:15 AM 3.2 °F -9.1 °F -5.8 °F 66% 29.63 in 10.0 mi South 6.9 mph - N/A   Overcast
9:36 AM 5.0 °F -4.1 °F -5.8 °F 61% 29.62 in 10.0 mi South 4.6 mph - N/A   Scattered Clouds
9:55 AM 6.8 °F - -14.8 °F 37% 29.61 in 10.0 mi Calm Calm - N/A   Mostly Cloudy
10:15 AM 8.6 °F - -0.4 °F 67% 29.61 in 10.0 mi Calm Calm - N/A   Overcast
10:35 AM 6.8 °F -3.5 °F -0.4 °F 72% 29.59 in 10.0 mi SE 5.8 mph - N/A   Overcast
10:55 AM 8.6 °F -2.6 °F -0.4 °F 67% 29.58 in 10.0 mi SSE 6.9 mph - N/A   Mostly Cloudy
11:15 AM 8.6 °F -3.7 °F 1.4 °F 73% 29.56 in 10.0 mi SSE 8.1 mph - N/A   Mostly Cloudy
11:35 AM 10.4 °F 0.8 °F 3.2 °F 73% 29.54 in 10.0 mi SE 5.8 mph - N/A   Overcast
11:55 AM 10.4 °F 0.8 °F 3.2 °F 73% 29.52 in 10.0 mi SE 5.8 mph - N/A   Overcast
12:15 PM 10.4 °F -1.5 °F 3.2 °F 73% 29.50 in 10.0 mi SE 8.1 mph - N/A   Overcast
12:35 PM 12.2 °F 2.9 °F 3.2 °F 67% 29.49 in 10.0 mi SE 5.8 mph - N/A   Overcast
12:55 PM 12.2 °F 0.7 °F 6.8 °F 79% 29.48 in 5.0 mi SE 8.1 mph - N/A   Overcast
1:15 PM 14.0 °F 3.9 °F 6.8 °F 73% 29.47 in 3.0 mi SE 6.9 mph - N/A   Overcast
1:35 PM 15.8 °F 6.1 °F 8.6 °F 73% 29.46 in 5.0 mi ESE 6.9 mph - N/A   Overcast
1:55 PM 15.8 °F 8.6 °F 10.4 °F 79% 29.46 in 2.5 mi ESE 4.6 mph - N/A   Overcast
2:35 PM 21.2 °F 12.6 °F 15.8 °F 80% - 5.0 mi South 6.9 mph - N/A   Overcast
2:55 PM 21.2 °F 11.7 °F 17.6 °F 86% 29.46 in 4.0 mi South 8.1 mph - N/A   Overcast
3:35 PM 23.0 °F 13.9 °F 17.6 °F 80% 29.46 in 2.5 mi South 8.1 mph - N/A   Overcast
4:15 PM 23.0 °F 13.9 °F 17.6 °F 80% 29.46 in 2.5 mi South 8.1 mph - N/A   Overcast
4:35 PM 23.0 °F 14.7 °F 19.4 °F 86% 29.47 in 3.0 mi SSW 6.9 mph - N/A   Overcast
4:55 PM 24.8 °F 17.9 °F 19.4 °F 80% 29.47 in 3.0 mi SSW 5.8 mph - N/A   Overcast
5:15 PM 24.8 °F 17.9 °F 19.4 °F 80% 29.47 in 3.0 mi South 5.8 mph - N/A   Overcast
5:35 PM 24.8 °F 15.3 °F 19.4 °F 80% 29.47 in 3.0 mi SSW 9.2 mph - N/A   Overcast
5:55 PM 24.8 °F 17.9 °F 19.4 °F 80% 29.47 in 10.0 mi SW 5.8 mph - N/A   Overcast
6:15 PM 24.8 °F - 19.4 °F 80% 29.48 in 10.0 mi Calm Calm - N/A   Overcast
6:35 PM 26.6 °F 20.0 °F 19.4 °F 74% 29.48 in 8.0 mi WSW 5.8 mph - N/A   Mostly Cloudy
6:55 PM 26.6 °F 18.2 °F 19.4 °F 74% 29.49 in 9.0 mi WSW 8.1 mph - N/A   Overcast
7:15 PM 26.6 °F 18.2 °F 21.2 °F 80% - 5.0 mi West 8.1 mph - N/A   Overcast
7:35 PM 26.6 °F 21.2 °F 21.2 °F 80% - 7.0 mi NW 4.6 mph - N/A   Overcast
7:55 PM 26.6 °F 21.2 °F 21.2 °F 80% - 3.0 mi WNW 4.6 mph - N/A   Mostly Cloudy
8:15 PM 24.8 °F 17.9 °F 21.2 °F 86% 29.50 in 5.0 mi West 5.8 mph - N/A   Mostly Cloudy
8:35 PM 24.8 °F - 21.2 °F 86% 29.50 in 10.0 mi Calm Calm - N/A   Overcast
8:56 PM 24.8 °F - 19.4 °F 80% 29.50 in 10.0 mi Calm Calm - N/A   Overcast
9:15 PM 24.8 °F - 21.2 °F 86% 29.50 in 10.0 mi Calm Calm - N/A   Overcast
9:35 PM 24.8 °F 20.5 °F 21.2 °F 86% 29.50 in 10.0 mi SW 3.5 mph - N/A   Overcast
9:55 PM 24.8 °F - 19.4 °F 80% 29.49 in 10.0 mi Calm Calm - N/A   Overcast
10:15 PM 23.0 °F - 17.6 °F 80% 29.50 in 10.0 mi Calm Calm - N/A   Overcast
10:35 PM 23.0 °F - 19.4 °F 86% 29.50 in 10.0 mi Calm Calm - N/A   Mostly Cloudy
10:55 PM 23.0 °F - 19.4 °F 86% 29.51 in - Calm Calm - N/A   Overcast
11:15 PM 24.8 °F - 21.2 °F 86% 29.50 in - Calm Calm - N/A   Overcast
11:35 PM 24.8 °F - 19.4 °F 80% 29.50 in 7.0 mi Calm Calm - N/A   Overcast